{"data":{"norad_id":59384,"epoch":"2026-09-21T18:13:38.837856Z","epoch_age_seconds":53407,"freshness":"FRESH","line1":"1 59384U 24062L   26264.75947729 -.00000468  00000+0 -27068-5 0  9990","line2":"2 59384  53.1608  61.8862 0001240  81.2277 278.8866 15.34389319139733","mean_motion":15.34389319,"eccentricity":0.000124,"inclination_deg":53.1608,"raan_deg":61.8862,"arg_perigee_deg":81.2277,"mean_anomaly_deg":278.8866,"bstar":-2.7068e-6,"rev_number":13973,"period_min":93.848411362671,"perigee_km":461.88671844785,"apogee_km":463.58325470052,"semimajor_km":6840.8719865742,"source":"CELESTRAK","updated_at":"2026-09-22T09:00:48.909721Z"}}